[[{"header":{"parameterUnit":"m.s-1","parameterCategory":1,"la1":30.2991,"la2":30.254,"lo1":-89.0895,"lo2":-89.0444,"dy":0.0017,"dx":0.0017,"nx":28,"ny":28,"refTime":"2024-10-04T21:00:00:Z","depth":0,"parameterNumber":2,"parameterNumberName":"U-component_of_WINDS"},"data":[0,0,0,0,0,0,0,0,0,0,0,0,0,0,0,0,0,0,0,0,0,0,0,0,0,0,0,0,0,0,0,0,0,0,0,0,0,0,0,0,0,0,0,0,0,0,0,0,0,0,0,0,0,0,0,0,0,0,-3.7899,-3.7899,0,-3.7925,-3.7925,-3.7925,-3.7769,-3.7765,-3.776,-3.7756,-3.7785,-3.7789,-3.7794,0,0,0,0,0,0,0,0,0,0,0,0,0,-3.7718,-3.7722,-3.7899,-3.7899,-3.79,-3.7925,-3.7925,-3.7925,-3.777,-3.7764,-3.7759,-3.7754,-3.7783,-3.7789,-3.7795,0,0,0,0,0,0,0,0,0,0,0,0,0,-3.7776,-3.7723,-3.7899,-3.7825,-3.7819,-3.7925,-3.7925,-3.7926,-3.7771,-3.7764,-3.7758,-3.7751,-3.7781,-3.7788,-3.7796,-3.7975,0,0,-3.7818,-3.7821,0,0,0,0,0,0,0,0,-3.7773,-3.7782,-3.7836,-3.783,-3.7823,-3.7837,-3.7871,-3.7942,-3.7773,-3.7789,-3.7756,-3.7748,-3.7808,-3.7812,-3.7832,-3.7976,-3.7977,-3.7819,-3.7823,-3.7826,-3.7828,0,0,0,0,0,0,0,-3.7769,-3.778,-3.7909,-3.7837,-3.7829,-3.7791,-3.7792,-3.7884,-3.7836,-3.7787,-3.7776,-3.7781,-3.7803,-3.7825,-3.7831,-3.7978,-3.7819,-3.7825,-3.783,-3.7833,-3.827,-3.8277,0,0,0,0,0,0,-3.7774,-3.7778,-3.7908,-3.791,-3.7781,-3.78,-3.7801,-3.7839,-3.7834,-3.7827,-3.7787,-3.7774,-3.7816,-3.7823,-3.7832,-3.8041,-3.7826,-3.7833,-3.7837,-3.8263,-3.8272,-3.828,0,0,0,0,0,0,-3.7771,-3.7787,-3.7907,-3.7841,-3.7853,-3.781,-3.7855,-3.7843,-3.7865,-3.7834,-3.7824,-3.7818,-3.7811,-3.7822,-3.794,-3.804,-3.7837,-3.7843,-3.8255,-3.8266,-3.8276,-3.8461,0,0,0,0,0,0,-3.7766,-3.7787,-3.7854,-3.7844,-3.7858,-3.8015,-3.7861,-3.7849,-3.7878,-3.7861,-3.7861,-3.7854,-3.7806,-3.793,-3.7948,-3.8046,-3.7849,-3.8246,-3.826,-3.8273,-3.8446,-3.8477,-3.8504,0,0,0,0,0,-3.7761,-3.7906,-3.7858,-3.7875,-3.794,-3.8021,-3.8029,-3.797,-3.7887,-3.7954,-3.7934,-3.7854,-3.8027,-3.7944,-3.7962,-3.8064,-3.8239,-3.8256,-3.8272,-3.8433,-3.8471,-3.8503,0,0,0,0,0,0,-3.7929,-3.7903,-3.785,-3.7996,-3.8012,-3.7994,-3.8077,-3.8012,-3.8053,-3.8036,-3.7962,-3.7963,-3.8095,-3.8091,-3.8,-3.8238,-3.8118,-3.8139,-3.8235,-3.8271,-3.8299,-3.8297,-3.7855,0,0,0,0,0,-3.7983,-3.8051,-3.8024,-3.8155,-3.8166,-3.8121,-3.8154,-3.8108,-3.8121,-3.8128,-3.8116,-3.8133,-3.8191,-3.8231,-3.8282,-3.8445,-3.8443,-3.8525,-3.8554,-3.8577,-3.8596,-3.8682,-3.8718,-3.8333,-3.8333,-3.8333,0,0,-3.8096,-3.809,-3.8137,-3.8189,-3.8196,-3.8268,-3.8128,-3.821,-3.8262,-3.814,-3.8251,-3.8244,-3.8258,-3.84,-3.8462,-3.8401,-3.8702,-3.8598,-3.8617,-3.8623,-3.8703,-3.8739,-3.8772,-3.8344,-3.8342,-3.834,0,0,-3.8337,-3.834,-3.8449,-3.8459,-3.8471,-3.844,-3.8467,-3.846,-3.845,-3.856,-3.847,-3.8533,-3.8634,-3.8648,-3.8669,-3.8918,-3.8846,-3.8937,-3.9087,-3.9172,-3.9202,-3.9229,-3.9317,-3.935,-3.8955,-3.8956,-3.8956,0,-3.8476,-3.8579,-3.8514,-3.8602,-3.8628,-3.8521,-3.8632,-3.8645,-3.8674,-3.8695,-3.8626,-3.8751,-3.8754,-3.8897,-3.8958,-3.8979,-3.9007,-3.8936,-3.9203,-3.9229,-3.9253,-3.9336,-3.937,-3.8967,-3.8965,-3.8964,-3.8963,0,-3.8749,-3.8823,-3.891,-3.894,-3.8976,-3.9076,-3.9026,-3.9071,-3.9022,-3.8999,-3.9113,-3.9112,-3.9162,-3.9193,-3.9146,-3.9331,-3.9292,-3.9215,-3.9093,-3.9301,-3.9379,-3.941,-3.8982,-3.8978,-3.8975,-3.8972,0,0,-3.9096,-3.9089,-3.9123,-3.9135,-3.9141,-3.9197,-3.9293,-3.934,-3.938,-3.9405,-3.9483,-3.9571,-3.95,-3.9523,-3.9478,-3.9553,-3.975,-3.9465,-3.9465,-3.9518,-3.9954,-4.0012,-4.005,-3.9703,-3.9709,-3.9713,-3.9952,0,-3.9332,-3.9492,-3.9437,-3.9601,-3.9669,-3.9568,-3.9651,-3.9665,-3.9647,-3.9702,-3.9681,-3.9746,-3.9646,-3.966,-3.973,-3.9711,-3.9836,-3.9693,-3.9775,-3.9779,-3.9774,-4.009,-4.0151,-4.0377,-3.9982,-3.9987,-3.9991,0,-3.9628,-3.9663,-3.9834,-3.9829,-3.9856,-3.9931,-3.9971,-4.0025,-4.0039,-4.002,-4.0048,-3.9986,-4.008,-3.9959,-4.0088,-3.9992,-4.0023,-4.0019,-4.0027,-4.0031,-3.9897,-4.0103,-4.0447,-4.0481,-4.0038,-4.0034,-4.0031,0,-3.9863,-3.9954,-4.0068,-4.0082,-4.0079,-4.0135,-4.0137,-4.0144,-4.0176,-4.0212,-4.0232,-4.0279,-4.0305,-4.0343,-4.0296,-4.0212,-4.0432,-4.0307,-4.042,-4.0421,-4.0469,-4.0467,-4.0823,-4.0491,-4.0491,-4.049,-4.0489,0,-4.0132,-4.024,-4.0174,-4.0244,-4.0363,-4.0299,-4.0419,-4.0409,-4.0417,-4.0484,-4.0401,-4.0466,-4.0401,-4.046,-4.0425,-4.0537,-4.0549,-4.0538,-4.0527,-4.0545,-4.0546,-4.0563,-4.0546,-4.0499,-4.0497,-4.0495,-4.0494,0,-4.0415,-4.0374,-4.0492,-4.048,-4.048,-4.0568,-4.0558,-4.0623,-4.0599,-4.0686,-4.0702,-4.0665,-4.0731,-4.0688,-4.0755,-4.0731,-4.0878,-4.0846,-4.0873,-4.0864,-4.0979,-4.0969,-4.1358,-4.1406,-4.1044,-4.1047,-4.105,0,-4.0588,-4.0669,-4.0666,-4.0705,-4.0712,-4.0775,-4.0808,-4.0749,-4.0787,-4.0809,-4.0872,-4.0931,-4.0974,-4.1085,-4.1064,-4.1115,-4.1083,-4.1216,-4.109,-4.1106,-4.1085,-4.1081,-4.1089,-4.1241,-4.1246,-4.1249,-4.1252,0,-4.09,-4.0877,-4.0926,-4.0971,-4.1012,-4.1044,-4.107,-4.1107,-4.1047,-4.1094,-4.116,-4.1194,-4.1262,-4.1322,-4.1365,-4.1367,-4.1301,-4.1292,-4.132,-4.1339,-4.1352,-4.1347,-4.0942,-4.1283,-4.128,-4.1278,-4.1276,-4.1275,-4.1133,-4.1201,-4.1209,-4.1268,-4.1281,-4.1307,-4.1367,-4.1351,-4.1405,-4.1455,-4.1417,-4.1496,-4.1509,-4.156,-4.1571,-4.1632,-4.1578,-4.162,-4.163,-4.1642,-4.1657,-4.1343,-4.164,-4.1639,-4.1638,-4.1638,-4.1637,0,-4.1441,-4.1441,-4.1496,-4.1534,-4.1581,-4.1514,-4.1539,-4.1583,-4.1653,-4.167,-4.1715,-4.1792,-4.1849,-4.1834,-4.1886,-4.1939,-4.191,-4.1954,-4.1949,-4.1951,-4.1703,-4.1673,-4.1977,-4.1977,-4.1977,-4.1977,-4.1977,-4.1977,-4.1606,-4.1717,-4.1695,-4.1812,-4.1811,-4.1887,-4.1907,-4.1931,-4.1945,-4.2034,-4.2081,-4.2071,-4.2075,-4.2127,-4.2178,-4.2172,-4.2195,-4.2251,-4.2235,-4.2002,-4.1969,-4.1937,-4.1908,-4.2257,-4.2257,-4.2478,-4.248,-4.2481]},{"header":{"parameterUnit":"m.s-1","parameterCategory":1,"la1":30.2991,"la2":30.254,"lo1":-89.0895,"lo2":-89.0444,"dy":0.0017,"dx":0.0017,"nx":28,"ny":28,"refTime":"2024-10-04T21:00:00:Z","depth":0,"parameterNumber":3,"parameterNumberName":"V-component_of_WINDS"},"data":[0,0,0,0,0,0,0,0,0,0,0,0,0,0,0,0,0,0,0,0,0,0,0,0,0,0,0,0,0,0,0,0,0,0,0,0,0,0,0,0,0,0,0,0,0,0,0,0,0,0,0,0,0,0,0,0,0,0,1.5337,1.5338,0,1.5366,1.5366,1.5366,1.5397,1.5398,1.5398,1.5399,1.5425,1.5425,1.5425,0,0,0,0,0,0,0,0,0,0,0,0,0,1.5308,1.5309,1.5337,1.5338,1.5338,1.5366,1.5366,1.5366,1.5397,1.5398,1.5398,1.5399,1.5425,1.5425,1.5425,0,0,0,0,0,0,0,0,0,0,0,0,0,1.5327,1.5309,1.5337,1.5357,1.5359,1.5366,1.5366,1.5366,1.5397,1.5398,1.5399,1.5399,1.5425,1.5425,1.5425,1.5414,0,0,1.5427,1.5427,0,0,0,0,0,0,0,0,1.5326,1.5328,1.5354,1.5356,1.5358,1.5379,1.5365,1.5382,1.5397,1.5383,1.5399,1.54,1.5409,1.541,1.5414,1.5415,1.5416,1.5427,1.5427,1.5427,1.5427,0,0,0,0,0,0,0,1.5325,1.5327,1.5348,1.5354,1.5357,1.5364,1.5367,1.5369,1.5391,1.5384,1.5386,1.5389,1.541,1.5414,1.5415,1.5417,1.5427,1.5427,1.5427,1.5427,1.541,1.541,0,0,0,0,0,0,1.5321,1.5326,1.5348,1.5349,1.5343,1.5364,1.5368,1.5371,1.5391,1.5395,1.5389,1.5391,1.5413,1.5415,1.5416,1.5404,1.5427,1.5427,1.5428,1.5411,1.541,1.5409,0,0,0,0,0,0,1.532,1.5322,1.5346,1.5338,1.5342,1.5364,1.5367,1.5371,1.5375,1.5395,1.5399,1.5388,1.5413,1.5415,1.5415,1.5405,1.5428,1.5428,1.5412,1.5411,1.541,1.538,0,0,0,0,0,0,1.5319,1.5322,1.5318,1.5338,1.5342,1.5345,1.5367,1.5372,1.5376,1.5379,1.5396,1.5399,1.5414,1.5414,1.5415,1.5406,1.5428,1.5413,1.5411,1.541,1.5381,1.5378,1.5374,0,0,0,0,0,1.5318,1.5308,1.5318,1.532,1.5338,1.5344,1.5347,1.5364,1.5375,1.5371,1.5384,1.5399,1.5407,1.5413,1.5415,1.5406,1.5413,1.5412,1.541,1.5383,1.5378,1.5374,0,0,0,0,0,0,1.5284,1.531,1.5322,1.5318,1.5329,1.5349,1.5345,1.5359,1.5366,1.5368,1.539,1.5393,1.539,1.5398,1.5405,1.5397,1.5412,1.5411,1.5391,1.5387,1.5383,1.538,1.5429,0,0,0,0,0,1.5277,1.5281,1.5303,1.5297,1.5302,1.5323,1.5326,1.5339,1.5351,1.5355,1.5368,1.5378,1.5383,1.5386,1.5391,1.5384,1.5387,1.5378,1.5375,1.5372,1.537,1.5367,1.5363,1.5404,1.5404,1.5404,0,0,1.526,1.5275,1.5276,1.5291,1.5301,1.5304,1.5326,1.5328,1.533,1.5355,1.5355,1.5365,1.5378,1.5374,1.5373,1.5381,1.536,1.537,1.5367,1.5367,1.5365,1.5361,1.5357,1.5403,1.5404,1.5404,0,0,1.5232,1.5244,1.5241,1.5251,1.5266,1.528,1.528,1.5299,1.5307,1.5308,1.5327,1.5329,1.5337,1.5346,1.5351,1.5328,1.5341,1.5329,1.531,1.5306,1.5303,1.53,1.5291,1.5288,1.5328,1.5328,1.5327,0,1.5209,1.5215,1.5237,1.5238,1.5244,1.5269,1.5265,1.5274,1.529,1.5293,1.5302,1.5314,1.5324,1.5322,1.5317,1.532,1.532,1.5326,1.5302,1.5299,1.5297,1.5289,1.5285,1.5326,1.5326,1.5326,1.5326,0,1.5186,1.519,1.5185,1.5202,1.5207,1.5206,1.5227,1.523,1.5244,1.5257,1.5257,1.5271,1.528,1.5281,1.5293,1.5281,1.5285,1.5298,1.5314,1.5291,1.5284,1.5281,1.5324,1.5324,1.5325,1.5325,0,0,1.5135,1.5165,1.5163,1.5171,1.5191,1.5194,1.5194,1.5204,1.5206,1.5217,1.5217,1.5224,1.5237,1.5243,1.5256,1.5254,1.5234,1.5267,1.5268,1.5259,1.5221,1.521,1.5206,1.5244,1.5244,1.5243,1.5219,0,1.5109,1.5111,1.5132,1.5128,1.5132,1.5157,1.5157,1.5169,1.5182,1.5186,1.52,1.5204,1.5221,1.5225,1.5223,1.5237,1.5226,1.5239,1.5243,1.5243,1.5237,1.5202,1.519,1.5167,1.5217,1.5216,1.5216,0,1.5078,1.5089,1.5086,1.5107,1.5109,1.5109,1.5121,1.5125,1.5139,1.5149,1.5156,1.5173,1.5174,1.519,1.5192,1.52,1.5203,1.521,1.521,1.521,1.5227,1.52,1.516,1.5156,1.5212,1.5212,1.5212,0,1.504,1.5054,1.5054,1.506,1.5085,1.5084,1.5094,1.511,1.5115,1.5125,1.5128,1.5138,1.5142,1.5149,1.5168,1.5178,1.5167,1.5185,1.5174,1.5173,1.5168,1.5168,1.5128,1.5173,1.5173,1.5173,1.5173,0,1.5008,1.5005,1.5037,1.5037,1.5034,1.5058,1.5055,1.5067,1.5081,1.5083,1.5106,1.5107,1.5133,1.5137,1.5151,1.515,1.5152,1.5159,1.5163,1.5156,1.5155,1.5157,1.5159,1.5172,1.5173,1.5173,1.5173,0,1.4963,1.4985,1.4987,1.5011,1.5018,1.5014,1.5035,1.5036,1.5051,1.5053,1.5055,1.5078,1.5085,1.5105,1.5115,1.5125,1.5119,1.5127,1.5114,1.5116,1.5104,1.5104,1.5062,1.5057,1.5107,1.5106,1.5106,0,1.4941,1.4939,1.4964,1.4968,1.4978,1.4984,1.499,1.5014,1.5019,1.5036,1.5034,1.5043,1.5051,1.506,1.5077,1.5085,1.5093,1.5078,1.5094,1.5088,1.5091,1.509,1.509,1.5073,1.5072,1.5072,1.5071,0,1.4898,1.4909,1.4917,1.493,1.4937,1.4947,1.4959,1.496,1.4988,1.4992,1.5,1.5006,1.5018,1.5026,1.5038,1.5047,1.5063,1.5067,1.5064,1.5057,1.5049,1.5052,1.5103,1.5067,1.5067,1.5068,1.5068,1.5068,1.4862,1.4863,1.4881,1.4889,1.4901,1.4912,1.4914,1.4931,1.4938,1.495,1.4964,1.497,1.4985,1.5003,1.5012,1.5016,1.5025,1.5022,1.5021,1.5019,1.5016,1.505,1.5019,1.5019,1.5019,1.5019,1.5019,0,1.482,1.4833,1.4841,1.4858,1.4865,1.4882,1.4896,1.49,1.4906,1.4919,1.4927,1.4936,1.4944,1.4963,1.4973,1.4973,1.498,1.4974,1.4974,1.4976,1.5008,1.5008,1.4968,1.4968,1.4968,1.4968,1.4968,1.4968,1.4798,1.4799,1.4813,1.482,1.4834,1.4841,1.4847,1.4857,1.4869,1.4878,1.4885,1.4898,1.4914,1.4925,1.4933,1.4939,1.4941,1.4932,1.4939,1.4969,1.4973,1.4978,1.4978,1.4932,1.4932,1.4906,1.4906,1.4906]}]]